• Processing (Info)

  • MPEC 2016-R59 : 2016 RO1

    The following Minor Planet Electronic Circular may be linked-to from your own Web pages, but must not otherwise be redistributed electronically.

    A form allowing access to any MPEC is at the bottom of this page.


    Read MPEC 2016-R58 Read MPEC 2016-R60


    M.P.E.C. 2016-R59                                Issued 2016 Sept. 6, 15:20 UT
    
         The Minor Planet Electronic Circulars contain information on unusual
             minor planets and routine data on comets.  They are published
        on behalf of Division F of the International Astronomical Union by the
              Minor Planet Center, Smithsonian Astrophysical Observatory,
                              Cambridge, MA 02138, U.S.A.
    
                 Prepared using the Tamkin Foundation Computer Network
    
                                  MPC@CFA.HARVARD.EDU
                URL https://www.minorplanetcenter.net/    ISSN 1523-6714
    
                                       2016 RO1
    
    Observations:
         K16R01O* C2016 09 03.37441 21 43 26.51 +24 41 36.2          20.2 VqER059G96
         K16R01O  C2016 09 03.37828 21 43 26.07 +24 41 36.1          20.1 VqER059G96
         K16R01O  C2016 09 03.38216 21 43 25.61 +24 41 35.7          20.0 VqER059G96
         K16R01O  C2016 09 03.38604 21 43 25.20 +24 41 35.9          20.2 VqER059G96
         K16R01O  C2016 09 03.40521 21 43 22.94 +24 41 36.1          19.9 VqER059G96
         K16R01O  C2016 09 03.40837 21 43 22.57 +24 41 35.8          20.1 VqER059G96
         K16R01O  C2016 09 03.41085 21 43 22.29 +24 41 36.9          20.5 VoER059691
         K16R01O  C2016 09 03.41161 21 43 22.18 +24 41 36.1          20.1 VqER059G96
         K16R01O  C2016 09 03.41481 21 43 21.81 +24 41 35.9                qER059G96
         K16R01O  C2016 09 03.41770 21 43 21.51 +24 41 36.2          21.2 VoER059691
         K16R01O  C2016 09 03.42460 21 43 20.69 +24 41 36.7          20.4 VoER059691
         K16R01O  C2016 09 03.82361 21 42 36.85 +24 41 42.4          20.8 VSER059033
         K16R01O  C2016 09 03.82598 21 42 36.59 +24 41 42.4          20.3 VSER059033
         K16R01O  C2016 09 03.82834 21 42 36.31 +24 41 42.5          20.5 VSER059033
         K16R01O  C2016 09 03.89516 21 42 28.51 +24 41 44.0          20.6 VSER059033
         K16R01O  C2016 09 03.89753 21 42 28.23 +24 41 43.9          20.4 VSER059033
         K16R01O  C2016 09 03.89990 21 42 27.96 +24 41 44.0          20.5 VSER059033
         K16R01O  C2016 09 03.90227 21 42 27.70 +24 41 44.0          20.4 VSER059033
         K16R01O  C2016 09 03.90463 21 42 27.41 +24 41 44.2          19.9 VSER059033
         K16R01O KC2016 09 04.14587 21 42 00.60 +24 41 47.5          19.7 RqER059H36
         K16R01O KC2016 09 04.15363 21 41 59.66 +24 41 48.0          20.1 RqER059H36
         K16R01O KC2016 09 04.15834821 41 58.95 +24 41 48.0          20.1 VuER059H21
         K16R01O KC2016 09 04.16134 21 41 58.75 +24 41 48.7          19.8 RqER059H36
         K16R01O KC2016 09 04.16406621 41 58.30 +24 41 48.2          20.2 VuER059H21
         K16R01O KC2016 09 04.17066321 41 57.50 +24 41 48.2          21.1 VuER059H21
         K16R01O  C2016 09 04.33256 21 41 38.82 +24 41 48.3          20.0 VqER059G96
         K16R01O  C2016 09 04.33405 21 41 38.62 +24 41 48.6          20.0 VqER059G96
         K16R01O  C2016 09 04.33552 21 41 38.43 +24 41 48.3          20.2 VqER059G96
         K16R01O  C2016 09 04.33697 21 41 38.28 +24 41 48.5          20.1 VqER059G96
         K16R01O  C2016 09 05.21730 21 40 00.06 +24 41 26.7          20.6 VqER059G96
         K16R01O  C2016 09 05.21774 21 39 59.99 +24 41 27.1          20.6 VqER059G96
         K16R01O  C2016 09 05.22134 21 39 59.59 +24 41 26.4          20.7 VqER059G96
         K16R01O  C2016 09 05.22177 21 39 59.59 +24 41 26.3          20.5 VqER059G96
         K16R01O  C2016 09 05.22545 21 39 59.09 +24 41 26.1          20.2 VqER059G96
         K16R01O  C2016 09 05.22588 21 39 59.12 +24 41 26.6          20.4 VqER059G96
         K16R01O  C2016 09 05.22957 21 39 58.61 +24 41 26.2          20.5 VqER059G96
         K16R01O  C2016 09 05.23002 21 39 58.58 +24 41 26.0          20.3 VqER059G96
         K16R01O 1C2016 09 05.29606 21 39 51.03 +24 41 19.8                 ER059658
         K16R01O 1C2016 09 05.29824 21 39 50.77 +24 41 19.7                 ER059658
         K16R01O 1C2016 09 05.30148 21 39 50.42 +24 41 19.5                 ER059658
         K16R01O HC2016 09 05.40010 21 39 38.69 +24 41 16.1          21.3 VoER059691
         K16R01O HC2016 09 05.41157 21 39 37.31 +24 41 15.4          21.6 VoER059691
         K16R01O HC2016 09 05.42311 21 39 36.04 +24 41 13.6                oER059691
         K16R01O  C2016 09 06.13013 21 38 18.41 +24 40 29.4          20.0 VqER059G96
         K16R01O  C2016 09 06.13624 21 38 17.80 +24 40 27.7                qER059G96
         K16R01O  C2016 09 06.14228 21 38 17.09 +24 40 27.6          20.8 VqER059G96
         K16R01O  C2016 09 06.14831 21 38 16.36 +24 40 27.8          20.4 VqER059G96
         K16R01O HC2016 09 06.25799 21 38 03.57 +24 40 19.1          20.7 VoER059691
         K16R01O HC2016 09 06.27652 21 38 01.42 +24 40 17.5          20.8 VoER059691
    
    Observer details:
    033 Karl Schwarzschild Observatory, Tautenburg.  Observers B. Stecklum,
        F. Ludwig.  Measurer B. Stecklum.  1.34-m f/3 Schmidt + CCD.
    658 National Research Council of Canada.  Observer D. D. Balam.  1.82-m
        Plaskett telescope + CCD.
    691 Steward Observatory, Kitt Peak.  Observers T. H. Bressi, J. V. Scotti.
        0.9-m f/3 reflector + CCD.
    G96 Mt. Lemmon Survey.  Observers R. G. Matheny, D. C. Fuls.  Measurers
        E. J. Christensen, D. C. Fuls, A. R. Gibbs, A. D. Grauer, J. A. Johnson,
        R. A. Kowalski, S. M. Larson, G. J. Leonard, R. G. Matheny, R. L. Seaman,
        F. C. Shelly.  1.5-m reflector + 10K CCD.
    H21 Astronomical Research Observatory, Westfield.  Observer R. Holmes.
        Measurers S. Foglia, L. Buzzi, T. Linder, R. Holmes.  0.76-m f/3.0
        astrograph + CCD.
    H36 Sandlot Observatory, Scranton.  Observer G. Hug.  0.56-m reflector + CCD.
    
    Orbital elements:
    2016 RO1                                                 Earth MOID = 0.0522 AU
    Epoch 2016 July 31.0 TT = JDT 2457600.5                 MPC
    M 272.64131              (2000.0)            P               Q
    n   0.50746001     Peri.  187.47424     +0.01957802     -0.97191990
    a   1.5566877      Node   261.61411     +0.92913457     +0.10430115
    e   0.3344829      Incl.   13.71134     +0.36922303     -0.21093360
    P   1.94           H   19.4           G   0.15           U   8
    Residuals in seconds of arc
    160903 G96  0.2-  0.3+    160903 033  0.1+  0.1-    160905 G96  0.8+  0.3+
    160903 G96  0.1-  0.2+    160903 033  0.1-  0.1+    160905 G96  0.3-  0.0
    160903 G96  0.2-  0.3-    160904 H36  0.6+  0.4-    160905 G96  0.1+  0.1-
    160903 G96  0.4+  0.1-    160904 H36  0.2+  0.1+    160905 658  0.2+  0.5+
    160903 G96  0.0   0.1-    160904 H21  0.4-  0.0     160905 658  0.2+  0.5+
    160903 G96  0.0   0.4-    160904 H36  0.2+  0.7+    160905 658  0.5+  0.5+
    160903 691  0.1+  0.5+    160904 H21  0.1-  0.1+    160905 691  0.1+  0.1-
    160903 G96  0.2-  0.1-    160904 H21  0.4-  0.1+    160905 691  0.7-  0.1+
    160903 G96  0.2-  0.3-    160904 G96  0.4+  0.4-    160905 691  0.0   0.8-
    160903 691  0.3+  0.2-    160904 G96  0.1+  0.1-    160906 G96  0.8-  1.0+
    160903 691  0.0   0.3+    160904 G96  0.2-  0.3-    160906 G96  0.5+  0.4-
    160903 033  0.1-  0.1-    160904 G96  0.1+  0.1-    160906 G96  0.3+  0.1-
    160903 033  0.1+  0.1-    160905 G96  0.2-  0.1+    160906 G96  0.1-  0.5+
    160903 033  0.0   0.1-    160905 G96  0.4-  0.5+    160906 691  0.1-  0.2-
    160903 033  0.2-  0.0     160905 G96  0.1-  0.1-    160906 691  0.2+  0.1-
    160903 033  0.2-  0.1-    160905 G96  0.6+  0.2-
    160903 033  0.1-  0.0     160905 G96  0.3-  0.2-
    
    Ephemeris:
    2016 RO1                 a,e,i = 1.56, 0.33, 14                  q = 1.0360
    Date    TT    R. A. (2000) Decl.     Delta      r     Elong.  Phase     V
    2016 08 07    22 26 43.9 +20 40 39   0.7703  1.6695   138.2    23.9    21.1
    ...
    2016 08 22    22 05 56.3 +23 43 35   0.6699  1.6046   144.5    21.5    20.6
    ...
    2016 08 30    21 51 39.5 +24 32 42   0.6311  1.5685   144.9    21.7    20.4
    ...
    2016 09 05    21 40 24.3 +24 41 37   0.6087  1.5408   143.5    22.9    20.4
    2016 09 06    21 38 32.5 +24 40 42   0.6056  1.5361   143.1    23.2    20.3
    2016 09 07    21 36 41.3 +24 39 06   0.6025  1.5314   142.8    23.5    20.3
    ...
    2016 09 13    21 26 00.7 +24 15 39   0.5874  1.5031   139.7    25.6    20.3
    ...
    2016 09 21    21 13 45.0 +23 11 19   0.5746  1.4648   134.4    29.3    20.3
    ...
    2016 10 06    21 00 23.1 +20 01 11   0.5674  1.3918   122.9    37.1    20.4
    
    A. U. Tomatic                (C) Copyright 2016 MPC           M.P.E.C. 2016-R59
    

    Read MPEC 2016-R58 Read MPEC 2016-R60


    MPEC number:

    Enter an MPEC number in one of the following forms:

    • 1997-B01 (the full form)
    • J97B01 (the packed version of the full form)
    • B01 (the abbreviated form)